| time (UTC) | temp F | wind direction | speed knots | gust knots | rain 1hr in | rain 24hr in | rain mn in | humidity % | barometer mb |
| 20260901203017 | 87 | 133 | 0.9 | 1.7 | 0.00 | 0.01 | 0.00 | 29 | 1024.0 |
| 20260901202015 | 89 | 238 | 1.7 | 3.5 | 0.00 | 0.01 | 0.00 | 27 | 1024.1 |
| 20260901201015 | 89 | 6 | 0.0 | 1.7 | 0.00 | 0.01 | 0.00 | 29 | 1024.2 |
| 20260901200036 | 88 | 255 | 0.9 | 3.5 | 0.00 | 0.01 | 0.00 | 30 | 1024.3 |
| 20260901195016 | 87 | 305 | 0.0 | 1.7 | 0.00 | 0.01 | 0.00 | 30 | 1024.4 |
| 20260901194056 | 86 | 313 | 0.0 | 1.7 | 0.00 | 0.01 | 0.00 | 30 | 1024.5 |
| 20260901193017 | 85 | 101 | 0.0 | 0.9 | 0.00 | 0.01 | 0.00 | 32 | 1024.6 |
| 20260901192017 | 84 | 267 | 0.9 | 2.6 | 0.00 | 0.01 | 0.00 | 32 | 1024.8 |
| 20260901191015 | 84 | 219 | 0.0 | 1.7 | 0.00 | 0.01 | 0.00 | 33 | 1024.9 |
| 20260901190015 | 82 | 314 | 0.0 | 0.9 | 0.00 | 0.01 | 0.00 | 36 | 1024.9 |
| 20260901185016 | 81 | 34 | 0.0 | 3.5 | 0.00 | 0.01 | 0.00 | 36 | 1025.1 |
| 20260901184016 | 81 | 277 | 0.9 | 5.2 | 0.00 | 0.01 | 0.00 | 36 | 1025.3 |
| 20260901183016 | 80 | 248 | 0.9 | 2.6 | 0.00 | 0.01 | 0.00 | 39 | 1025.4 |
| 20260901182037 | 79 | 136 | 0.0 | 0.9 | 0.00 | 0.01 | 0.00 | 41 | 1025.5 |
| 20260901181015 | 78 | 279 | 0.0 | 1.7 | 0.00 | 0.01 | 0.00 | 41 | 1025.8 |
| 20260901180015 | 77 | 174 | 0.0 | 1.7 | 0.00 | 0.01 | 0.00 | 43 | 1025.9 |
| 20260901175055 | 76 | 142 | 0.0 | 2.6 | 0.00 | 0.01 | 0.00 | 42 | 1026.0 |
| 20260901174017 | 75 | 156 | 0.9 | 1.7 | 0.00 | 0.01 | 0.00 | 44 | 1026.1 |
| 20260901173016 | 74 | 268 | 0.9 | 7.8 | 0.00 | 0.01 | 0.00 | 50 | 1026.3 |
| 20260901172017 | 72 | 121 | 0.0 | 1.7 | 0.00 | 0.01 | 0.00 | 53 | 1026.4 |
| 20260901171017 | 71 | 288 | 0.9 | 2.6 | 0.00 | 0.01 | 0.00 | 56 | 1026.5 |
| 20260901170015 | 70 | 139 | 0.9 | 2.6 | 0.00 | 0.01 | 0.00 | 57 | 1026.6 |
| 20260901165015 | 70 | 149 | 0.0 | 1.7 | 0.00 | 0.01 | 0.00 | 58 | 1026.5 |
| 20260901164016 | 70 | 128 | 0.9 | 3.5 | 0.00 | 0.01 | 0.00 | 58 | 1026.4 |
| 20260901163016 | 69 | 163 | 0.0 | 1.7 | 0.00 | 0.01 | 0.00 | 60 | 1026.4 |
| 20260901162016 | 69 | 280 | 0.9 | 3.5 | 0.00 | 0.01 | 0.00 | 61 | 1026.5 |
| 20260901161017 | 68 | 281 | 0.0 | 1.7 | 0.00 | 0.01 | 0.00 | 62 | 1026.5 |
| 20260901160017 | 68 | 271 | 0.0 | 1.7 | 0.00 | 0.01 | 0.00 | 63 | 1026.6 |
| 20260901155015 | 67 | 154 | 0.0 | 1.7 | 0.00 | 0.01 | 0.00 | 64 | 1026.6 |
| 20260901154015 | 66 | 139 | 0.0 | 1.7 | 0.00 | 0.01 | 0.00 | 65 | 1026.5 |
| 20260901153016 | 65 | 177 | 0.0 | 0.9 | 0.00 | 0.01 | 0.00 | 68 | 1026.5 |
| 20260901152016 | 65 | 0.0 | 0.0 | 0.00 | 0.01 | 0.00 | 69 | 1026.5 | |
| 20260901151016 | 64 | 0.0 | 0.0 | 0.00 | 0.01 | 0.00 | 72 | 1026.3 | |
| 20260901150017 | 63 | 146 | 0.0 | 0.9 | 0.00 | 0.01 | 0.00 | 76 | 1026.3 |
| 20260901145017 | 62 | 0.0 | 0.0 | 0.00 | 0.01 | 0.00 | 80 | 1026.1 | |
| 20260901144015 | 62 | 0.0 | 0.0 | 0.00 | 0.01 | 0.00 | 81 | 1026.1 | |
| 20260901143015 | 62 | 0.0 | 0.0 | 0.00 | 0.01 | 0.00 | 81 | 1026.0 | |
| 20260901142016 | 61 | 0.0 | 0.0 | 0.00 | 0.01 | 0.00 | 82 | 1026.0 | |
| 20260901141056 | 61 | 0.0 | 0.0 | 0.00 | 0.01 | 0.00 | 82 | 1026.0 | |
| 20260901140016 | 60 | 146 | 0.0 | 0.9 | 0.00 | 0.01 | 0.00 | 81 | 1025.9 |
| 20260901135037 | 60 | 0.0 | 0.0 | 0.00 | 0.01 | 0.00 | 82 | 1025.9 | |
| 20260901134017 | 60 | 0.0 | 0.0 | 0.00 | 0.01 | 0.00 | 82 | 1025.9 | |
| 20260901133015 | 60 | 146 | 0.0 | 0.9 | 0.00 | 0.01 | 0.00 | 82 | 1025.7 |
| 20260901132016 | 59 | 146 | 0.0 | 0.9 | 0.00 | 0.01 | 0.00 | 83 | 1025.6 |
| 20260901131016 | 59 | 174 | 0.0 | 0.9 | 0.00 | 0.01 | 0.00 | 85 | 1025.5 |
| 20260901130016 | 58 | 0.0 | 0.0 | 0.00 | 0.01 | 0.00 | 85 | 1025.3 | |
| 20260901125016 | 58 | 0.0 | 0.0 | 0.00 | 0.01 | 0.00 | 84 | 1025.1 | |
| 20260901124017 | 58 | 0.0 | 0.0 | 0.00 | 0.01 | 0.00 | 84 | 1025.0 | |
| 20260901123014 | 58 | 0.0 | 0.0 | 0.00 | 0.01 | 0.00 | 84 | 1025.0 | |
| 20260901122015 | 58 | 0.0 | 0.0 | 0.00 | 0.01 | 0.00 | 83 | 1024.9 | |
| 20260901121015 | 59 | 0.0 | 0.0 | 0.00 | 0.01 | 0.00 | 83 | 1024.8 | |
| 20260901120016 | 59 | 0.0 | 0.0 | 0.00 | 0.01 | 0.00 | 82 | 1024.8 | |
| 20260901115016 | 60 | 0.0 | 0.0 | 0.00 | 0.01 | 0.00 | 80 | 1024.8 | |
| 20260901114016 | 60 | 290 | 0.0 | 1.7 | 0.00 | 0.01 | 0.00 | 79 | 1024.7 |
| 20260901113017 | 60 | 151 | 0.0 | 3.5 | 0.00 | 0.01 | 0.00 | 78 | 1024.5 |
| 20260901112015 | 60 | 143 | 0.9 | 3.5 | 0.00 | 0.01 | 0.00 | 79 | 1024.5 |
| 20260901111015 | 60 | 137 | 0.9 | 1.7 | 0.00 | 0.01 | 0.00 | 80 | 1024.7 |
| 20260901110035 | 59 | 143 | 0.0 | 1.7 | 0.00 | 0.01 | 0.00 | 81 | 1024.9 |
| 20260901105036 | 59 | 135 | 0.0 | 0.9 | 0.00 | 0.01 | 0.00 | 81 | 1025.1 |
| 20260901104016 | 60 | 132 | 0.0 | 1.7 | 0.00 | 0.01 | 0.00 | 80 | 1025.2 |
| 20260901103017 | 60 | 147 | 0.0 | 0.9 | 0.00 | 0.01 | 0.00 | 80 | 1025.3 |
| 20260901102037 | 59 | 147 | 0.0 | 0.9 | 0.00 | 0.01 | 0.00 | 81 | 1025.5 |
| 20260901101035 | 59 | 147 | 0.0 | 0.9 | 0.00 | 0.01 | 0.00 | 81 | 1025.6 |
| 20260901100015 | 59 | 140 | 0.9 | 2.6 | 0.00 | 0.01 | 0.00 | 81 | 1025.6 |
| 20260901095016 | 59 | 144 | 0.0 | 0.9 | 0.00 | 0.01 | 0.00 | 81 | 1025.7 |
| 20260901094016 | 59 | 145 | 0.0 | 1.7 | 0.00 | 0.01 | 0.00 | 81 | 1026.0 |
| 20260901093016 | 59 | 139 | 0.0 | 1.7 | 0.00 | 0.01 | 0.00 | 81 | 1026.0 |
| 20260901092017 | 60 | 139 | 0.0 | 0.9 | 0.00 | 0.01 | 0.00 | 81 | 1026.1 |
| 20260901091017 | 60 | 139 | 0.0 | 1.7 | 0.00 | 0.01 | 0.00 | 81 | 1026.1 |
| 20260901090035 | 60 | 139 | 0.0 | 1.7 | 0.00 | 0.01 | 0.00 | 81 | 1026.1 |
| 20260901085015 | 60 | 139 | 0.0 | 0.9 | 0.00 | 0.01 | 0.00 | 81 | 1026.1 |
| 20260901084016 | 60 | 140 | 0.0 | 0.9 | 0.00 | 0.01 | 0.00 | 82 | 1026.3 |
| 20260901083036 | 60 | 143 | 0.9 | 2.6 | 0.00 | 0.01 | 0.00 | 82 | 1026.4 |
| 20260901082017 | 60 | 145 | 0.0 | 0.9 | 0.00 | 0.01 | 0.00 | 83 | 1026.4 |
| 20260901081017 | 60 | 145 | 0.0 | 0.9 | 0.00 | 0.01 | 0.00 | 83 | 1026.6 |
| 20260901080014 | 60 | 145 | 0.0 | 0.9 | 0.00 | 0.01 | 0.00 | 82 | 1026.7 |
| 20260901075015 | 60 | 0.0 | 0.0 | 0.00 | 0.01 | 0.00 | 82 | 1026.9 | |
| 20260901074015 | 60 | 282 | 0.0 | 0.9 | 0.00 | 0.01 | 0.00 | 83 | 1026.9 |
| 20260901073036 | 60 | 0.0 | 0.0 | 0.00 | 0.01 | 0.00 | 83 | 1026.8 | |
| 20260901072016 | 60 | 0.0 | 0.0 | 0.00 | 0.01 | 0.00 | 83 | 1027.0 | |
| 20260901071017 | 60 | 0.0 | 0.0 | 0.00 | 0.01 | 0.00 | 83 | 1027.0 | |
| 20260901070017 | 60 | 0.0 | 0.0 | 0.00 | 0.01 | 0.00 | 83 | 1026.9 | |
| 20260901065015 | 60 | 0.0 | 0.0 | 0.00 | 0.01 | 0.00 | 83 | 1026.8 | |
| 20260901064015 | 60 | 0.0 | 0.0 | 0.00 | 0.01 | 0.00 | 82 | 1026.7 | |
| 20260901063015 | 60 | 0.0 | 0.0 | 0.00 | 0.01 | 0.00 | 82 | 1026.8 | |
| 20260901062016 | 60 | 0.0 | 0.0 | 0.00 | 0.01 | 0.00 | 81 | 1026.8 | |
| 20260901061016 | 61 | 0.0 | 0.0 | 0.00 | 0.01 | 0.00 | 81 | 1026.6 | |
| 20260901060017 | 61 | 0.0 | 0.0 | 0.00 | 0.01 | 0.00 | 80 | 1026.7 | |
| 20260901055017 | 61 | 141 | 0.0 | 0.9 | 0.00 | 0.01 | 0.01 | 80 | 1027.2 |
| 20260901054035 | 61 | 144 | 0.9 | 1.7 | 0.00 | 0.01 | 0.01 | 80 | 1027.4 |
| 20260901053015 | 61 | 139 | 0.9 | 2.6 | 0.00 | 0.01 | 0.01 | 81 | 1027.3 |
| 20260901052016 | 61 | 142 | 0.0 | 1.7 | 0.00 | 0.01 | 0.01 | 81 | 1027.3 |
| 20260901050036 | 61 | 132 | 0.0 | 0.9 | 0.00 | 0.01 | 0.01 | 81 | 1026.9 |
| 20260901045017 | 62 | 0.0 | 0.0 | 0.00 | 0.01 | 0.01 | 82 | 1027.0 | |
| 20260901044017 | 62 | 132 | 0.0 | 0.9 | 0.00 | 0.01 | 0.01 | 82 | 1026.7 |
| 20260901043055 | 62 | 0.0 | 0.0 | 0.00 | 0.01 | 0.01 | 82 | 1026.5 | |
| 20260901042015 | 62 | 0.0 | 0.0 | 0.00 | 0.01 | 0.01 | 81 | 1026.5 | |
| 20260901041016 | 62 | 0.0 | 0.0 | 0.00 | 0.01 | 0.01 | 81 | 1026.5 | |
| 20260901040016 | 62 | 0.0 | 0.0 | 0.00 | 0.01 | 0.01 | 79 | 1026.7 | |
| 20260901035016 | 63 | 0.0 | 0.0 | 0.00 | 0.01 | 0.01 | 78 | 1026.9 | |
| 20260901034017 | 63 | 255 | 0.0 | 0.9 | 0.01 | 0.01 | 0.01 | 78 | 1027.1 |
| 20260901033057 | 62 | 220 | 0.0 | 1.7 | 0.01 | 0.01 | 0.01 | 81 | 1027.1 |
| 20260901032035 | 62 | 0.0 | 0.0 | 0.01 | 0.01 | 0.01 | 82 | 1027.5 | |
| 20260901031035 | 63 | 242 | 0.0 | 0.9 | 0.01 | 0.01 | 0.01 | 81 | 1027.5 |
| 20260901030016 | 63 | 242 | 0.0 | 0.9 | 0.01 | 0.01 | 0.01 | 81 | 1027.6 |
| 20260901025016 | 63 | 166 | 0.0 | 1.7 | 0.01 | 0.01 | 0.01 | 80 | 1027.6 |
| 20260901024016 | 65 | 127 | 0.9 | 3.5 | 0.00 | 0.00 | 0.00 | 77 | 1027.2 |
| 20260901023017 | 66 | 168 | 0.9 | 6.1 | 0.00 | 0.00 | 0.00 | 74 | 1027.4 |
| 20260901022015 | 71 | 173 | 2.6 | 8.7 | 0.00 | 0.00 | 0.00 | 62 | 1027.0 |
| 20260901021015 | 74 | 263 | 1.7 | 9.6 | 0.00 | 0.00 | 0.00 | 46 | 1025.9 |
| 20260901020036 | 75 | 129 | 0.0 | 1.7 | 0.00 | 0.00 | 0.00 | 45 | 1025.0 |
| 20260901015056 | 75 | 143 | 0.9 | 3.5 | 0.00 | 0.00 | 0.00 | 44 | 1024.6 |
| 20260901014016 | 76 | 143 | 0.9 | 4.3 | 0.00 | 0.00 | 0.00 | 44 | 1024.4 |
| 20260901013016 | 76 | 132 | 0.9 | 3.5 | 0.00 | 0.00 | 0.00 | 43 | 1024.3 |
| 20260901012017 | 76 | 101 | 0.0 | 1.7 | 0.00 | 0.00 | 0.00 | 45 | 1024.1 |
| 20260901011015 | 77 | 93 | 0.9 | 1.7 | 0.00 | 0.00 | 0.00 | 47 | 1024.0 |
| 20260901010016 | 77 | 91 | 0.0 | 2.6 | 0.00 | 0.00 | 0.00 | 46 | 1023.9 |
| 20260901005015 | 77 | 98 | 0.0 | 0.9 | 0.00 | 0.00 | 0.00 | 44 | 1024.1 |
| 20260901004036 | 78 | 90 | 0.0 | 0.9 | 0.00 | 0.00 | 0.00 | 44 | 1024.3 |
| 20260901003016 | 79 | 245 | 0.0 | 0.9 | 0.00 | 0.00 | 0.00 | 43 | 1024.4 |
| 20260901002016 | 79 | 89 | 0.9 | 1.7 | 0.00 | 0.00 | 0.00 | 42 | 1024.5 |
| 20260901001017 | 80 | 99 | 0.9 | 1.7 | 0.00 | 0.00 | 0.00 | 39 | 1024.5 |
| 20260901000015 | 82 | 91 | 0.9 | 2.6 | 0.00 | 0.00 | 0.00 | 38 | 1024.5 |
| 20260831235015 | 82 | 97 | 0.9 | 2.6 | 0.00 | 0.00 | 0.00 | 38 | 1024.6 |
| 20260831234015 | 82 | 100 | 0.9 | 1.7 | 0.00 | 0.00 | 0.00 | 38 | 1024.6 |
| 20260831233016 | 83 | 85 | 0.9 | 3.5 | 0.00 | 0.00 | 0.00 | 37 | 1024.6 |
| 20260831232016 | 83 | 89 | 0.9 | 2.6 | 0.00 | 0.00 | 0.00 | 37 | 1024.6 |
| 20260831231017 | 82 | 133 | 0.9 | 3.5 | 0.00 | 0.00 | 0.00 | 35 | 1024.6 |
| 20260831230017 | 82 | 115 | 0.9 | 2.6 | 0.00 | 0.00 | 0.00 | 35 | 1024.6 |
| 20260831225035 | 82 | 144 | 1.7 | 4.3 | 0.00 | 0.00 | 0.00 | 34 | 1024.9 |
| 20260831224015 | 83 | 133 | 0.9 | 3.5 | 0.00 | 0.00 | 0.00 | 33 | 1024.9 |
| 20260831223016 | 85 | 139 | 0.9 | 3.5 | 0.00 | 0.00 | 0.00 | 33 | 1025.1 |
| 20260831222016 | 86 | 136 | 0.9 | 5.2 | 0.00 | 0.00 | 0.00 | 32 | 1025.2 |
| 20260831221016 | 85 | 88 | 0.9 | 1.7 | 0.00 | 0.01 | 0.00 | 33 | 1025.3 |
| 20260831220017 | 86 | 146 | 0.9 | 3.5 | 0.00 | 0.02 | 0.00 | 34 | 1025.2 |
| 20260831215014 | 86 | 48 | 0.9 | 2.6 | 0.00 | 0.02 | 0.00 | 34 | 1025.3 |
| 20260831214015 | 86 | 96 | 0.9 | 1.7 | 0.00 | 0.02 | 0.00 | 35 | 1025.5 |
| 20260831213015 | 86 | 95 | 0.9 | 2.6 | 0.00 | 0.02 | 0.00 | 35 | 1025.6 |
| 20260831212016 | 85 | 89 | 0.9 | 2.6 | 0.00 | 0.02 | 0.00 | 35 | 1025.7 |
| 20260831211016 | 83 | 111 | 0.9 | 1.7 | 0.00 | 0.02 | 0.00 | 36 | 1025.8 |
| 20260831210036 | 84 | 99 | 0.9 | 2.6 | 0.00 | 0.02 | 0.00 | 34 | 1026.0 |
| 20260831205017 | 85 | 114 | 0.0 | 0.9 | 0.00 | 0.02 | 0.00 | 36 | 1026.0 |
| 20260831204015 | 84 | 120 | 0.9 | 2.6 | 0.00 | 0.02 | 0.00 | 36 | 1026.2 |